Wind_Speed
27 27 27 26 25 25 25 24 23 22 22 21 22 22 20 20 19 19 19 19 19 19 19 19 19 19 19 19 19 20 20 20 21 21 21 21 21 22 22 22 22 23 23 24
29 28 29 29 27 26 25 24 23 23 22 22 22 22 21 20 20 20 20 20 20 20 20 21 21 20 20 20 20 20 21 21 21 21 22 22 22 22 23 24 24 24 25 25
29 29 30 30 27 26 25 24 23 22 22 22 22 22 21 21 21 21 21 21 20 20 21 21 22 21 21 21 21 21 21 21 21 21 22 23 23 23 24 24 25 25 25 25
29 29 30 28 27 25 25 24 24 24 23 23 22 22 22 22 22 22 21 21 22 22 22 22 22 22 22 22 22 22 22 22 22 22 22 23 23 24 24 25 25 26 25 24
28 29 29 28 27 26 25 25 25 24 23 24 23 23 23 23 23 22 22 22 22 23 22 23 23 23 23 23 23 23 23 23 23 23 23 23 23 24 25 26 27 27 26 26
28 29 28 27 26 25 26 26 26 25 25 24 24 24 25 24 24 24 23 23 23 23 23 23 23 23 24 24 23 23 24 24 24 24 24 24 24 25 26 28 28 27 27 27
28 28 27 27 26 25 27 27 26 26 26 26 25 25 25 24 24 24 24 24 24 25 25 24 24 24 25 25 25 25 25 25 26 25 25 26 27 26 27 28 28 28 28 28
27 27 28 27 26 27 27 27 27 27 27 27 27 26 25 24 24 24 25 24 25 25 25 26 26 26 26 26 26 26 27 27 27 27 28 28 28 29 29 29 29 29 30 30
29 29 29 28 27 27 27 27 27 27 27 27 27 27 25 25 25 26 25 26 26 26 27 27 27 27 27 27 28 28 28 28 29 30 30 29 30 30 30 29 30 30 31 31
30 30 30 29 28 27 27 27 27 27 28 28 27 27 26 26 27 27 27 28 28 28 28 29 28 28 29 29 29 29 29 29 30 31 32 31 30 30 30 30 31 31 31 30
29 29 28 29 29 29 28 28 27 27 27 28 29 28 27 27 26 27 28 28 28 28 29 29 29 30 30 30 30 30 30 30 31 31 31 31 31 31 32 32 32 32 31 31
29 28 28 28 28 29 28 28 27 27 27 27 27 28 28 28 28 28 28 28 28 28 29 29 30 31 31 30 31 31 31 30 31 31 31 31 32 32 32 32 32 31 31 31
29 28 28 27 27 28 28 28 27 27 26 26 26 26 27 27 28 28 28 27 28 28 29 30 31 31 31 31 31 32 32 32 32 32 32 32 32 32 32 32 31 31 31 31
28 27 27 26 27 27 27 27 27 26 26 26 26 26 26 27 27 28 28 27 28 28 29 30 30 30 31 32 32 32 32 32 32 32 32 32 33 33 33 33 32 32 31 31
25 25 25 26 26 27 26 26 26 26 26 25 25 26 26 26 27 27 27 28 29 29 29 29 29 30 31 31 31 31 31 30 30 30 31 32 32 32 33 32 32 32 31 31
23 23 23 24 25 25 26 25 25 24 25 25 25 25 26 26 27 28 28 28 28 28 28 29 29 29 30 30 30 30 30 30 31 30 30 31 31 31 32 32 32 31 31 31
22 22 22 22 23 23 23 23 24 24 24 24 25 25 26 27 28 29 29 29 29 29 29 29 29 28 28 29 29 29 29 29 30 30 29 29 29 30 30 30 30 30 30 30
21 21 21 21 21 21 22 23 23 23 24 24 24 25 26 27 27 28 28 28 28 28 28 28 28 28 27 27 27 28 28 28 28 28 28 28 28 29 30 29 29 29 28 28
21 20 20 20 21 21 21 22 22 23 23 24 24 25 25 26 26 26 25 26 26 27 26 26 26 26 27 26 26 27 27 27 27 27 27 27 28 28 29 29 29 28 27 28
20 20 19 19 20 20 20 21 22 23 23 23 23 24 23 23 24 24 24 25 26 25 25 25 25 25 25 25 25 26 26 26 26 26 26 26 27 27 27 28 27 27 27 27
18 18 18 18 19 19 19 20 20 20 20 20 21 21 21 22 23 23 23 23 24 24 25 25 25 25 24 25 25 25 25 26 26 26 26 26 26 26 26 26 26 26 26 26
18 17 18 18 18 18 18 19 18 18 18 19 19 20 21 22 22 22 22 22 22 22 23 24 24 25 24 24 24 25 25 25 25 26 26 26 26 26 26 25 25 25 25 25
17 17 17 17 18 18 18 18 18 17 17 18 18 20 21 21 21 21 21 22 22 23 23 23 23 24 24 24 25 25 25 24 24 24 24 24 24 25 24 24 24 24 24 25
16 17 17 17 17 17 17 17 17 17 17 18 18 19 20 19 20 20 21 21 22 22 22 22 22 23 23 23 23 23 24 23 23 23 23 23 23 24 24 23 23 23 24 24
14 15 15 16 16 15 15 16 16 17 17 17 18 19 19 18 18 19 20 20 20 20 21 21 22 22 22 22 22 22 22 22 22 23 23 23 23 23 23 23 23 23 24 24
12 13 14 14 15 15 15 15 15 16 16 16 17 18 18 18 18 19 20 20 20 20 20 21 21 21 21 21 22 22 22 22 22 22 22 22 22 22 22 23 23 24 24 24
12 12 12 13 14 14 14 14 15 15 16 17 17 17 18 18 19 20 20 20 20 20 19 19 20 20 21 21 21 22 22 22 22 22 22 22 22 22 23 23 24 24 24 24
Wind_Direction
244 246 248 252 254 256 257 258 261 266 268 271 272 274 275 275 277 278 279 279 279 281 283 283 283 280 282 283 283 286 286 285 286 287 288 289 290 290 291 290 289 288 288 288
248 249 250 253 255 256 256 256 258 262 266 267 270 273 275 276 278 279 279 279 279 281 283 283 283 281 281 281 282 286 287 287 286 287 288 289 290 290 290 289 289 290 289 287
247 248 250 251 253 255 255 255 257 262 266 267 268 270 273 275 277 277 276 277 278 281 282 281 281 280 280 280 281 283 285 286 286 286 287 289 289 290 290 290 289 290 291 289
247 247 248 251 254 255 255 255 257 261 265 267 269 269 271 274 275 274 274 277 280 281 278 278 279 279 280 281 282 283 283 284 285 286 287 288 289 289 290 291 291 290 291 290
246 249 251 251 252 254 255 256 257 261 265 268 268 269 270 271 273 274 273 273 276 278 278 279 279 278 278 280 282 283 284 284 285 287 289 290 290 290 291 292 293 292 292 291
246 248 251 252 255 253 254 255 257 260 264 266 266 267 267 268 269 272 272 271 272 274 276 278 279 278 279 280 281 284 286 285 285 287 289 291 292 292 292 293 293 293 293 293
247 250 252 252 254 254 253 255 258 260 263 265 267 266 266 267 268 270 272 273 272 272 274 277 278 280 281 280 281 284 286 286 286 287 289 291 292 293 293 293 294 294 293 293
246 249 250 252 253 252 255 258 260 261 262 264 265 267 266 267 269 270 271 272 272 271 273 276 277 278 280 280 281 282 283 284 287 287 289 290 291 293 293 294 294 295 294 294
246 247 249 251 252 253 255 258 259 260 261 263 263 265 265 267 269 271 271 271 271 270 271 274 276 278 279 280 282 284 284 285 285 287 288 289 289 291 291 293 294 295 295 294
247 249 251 252 252 254 256 258 258 258 260 261 264 265 265 266 268 270 270 270 270 271 271 273 274 276 279 281 282 283 285 287 287 287 287 288 290 290 291 292 293 294 295 295
247 249 250 253 254 255 257 257 259 259 260 262 263 264 266 265 267 269 268 270 270 271 273 272 273 276 280 280 281 283 285 287 288 288 288 287 288 288 289 291 292 291 292 294
247 249 252 253 253 255 255 255 257 259 259 260 262 263 266 268 268 268 269 270 269 270 271 272 273 276 278 280 281 282 283 285 287 287 286 287 288 287 288 290 291 291 292 293
247 249 251 252 255 256 256 255 256 257 259 261 262 263 266 268 269 268 268 269 269 270 271 273 273 273 275 278 280 282 283 285 287 286 285 286 287 288 290 290 290 291 291 291
248 248 250 253 255 255 256 257 256 256 258 262 263 264 265 267 269 270 270 271 272 274 275 275 274 273 274 276 280 282 283 284 285 286 285 285 287 288 290 291 291 291 290 290
249 248 248 250 253 253 254 256 257 259 260 262 264 265 266 267 268 270 272 272 274 276 278 278 278 277 277 278 279 281 283 284 284 285 285 286 287 288 289 290 290 290 290 291
247 248 248 249 251 252 254 255 257 260 263 263 265 266 267 268 269 270 271 273 274 275 277 279 280 280 279 279 280 280 282 283 283 284 285 286 287 288 289 290 290 290 291 292
246 248 249 250 251 254 256 258 259 261 263 264 266 269 270 269 270 270 271 272 274 276 278 280 279 279 279 279 280 282 284 284 284 284 286 286 286 288 289 291 291 291 291 291
247 248 248 250 252 255 257 258 260 262 263 265 268 270 272 272 272 273 273 273 275 278 280 280 279 279 279 279 281 283 285 285 285 285 285 286 287 288 289 289 289 290 290 291
249 250 249 249 252 253 255 257 259 262 265 267 269 271 272 272 273 274 274 275 277 279 280 280 280 281 280 279 281 283 285 287 288 287 288 289 289 290 290 289 290 289 289 290
249 251 252 253 255 255 256 258 261 263 265 268 271 273 273 274 274 276 277 277 278 280 280 280 281 282 281 281 283 284 285 286 288 289 289 289 290 290 290 291 290 290 291 292
248 248 252 256 258 259 259 260 262 264 268 269 271 275 278 279 280 280 281 279 277 278 279 279 280 282 283 284 284 284 285 287 288 289 289 289 290 292 292 292 292 292 291 291
247 251 256 258 260 261 260 261 261 263 267 271 273 276 279 280 280 281 281 282 281 280 281 282 282 282 282 284 286 286 286 287 288 289 289 288 289 291 293 294 293 293 293 292
248 252 257 260 260 261 261 261 261 263 267 272 275 277 279 281 281 281 281 282 283 282 281 283 286 285 283 283 285 285 285 286 288 289 289 289 290 291 292 293 293 294 295 295
251 253 256 258 260 262 263 264 266 267 271 275 277 280 281 281 282 283 282 282 282 282 282 283 285 287 286 287 289 289 287 287 287 287 289 290 291 291 292 293 294 294 294 294
249 252 255 257 259 260 262 266 269 273 275 277 278 281 283 283 284 287 288 286 284 284 284 284 284 285 287 289 290 291 290 289 289 290 290 289 289 291 293 294 295 295 295 295
250 253 255 258 259 260 264 270 273 275 277 278 280 282 284 286 287 289 291 291 290 288 286 285 286 285 287 290 291 291 291 292 292 292 292 291 291 292 292 293 295 295 295 295
252 254 256 259 261 264 267 270 273 276 279 281 284 285 285 287 290 292 294 295 294 292 289 288 287 288 288 290 291 292 293 294 294 293 291 292 293 293 293 294 295 296 297 297
Height
5845 5847 5849 5849 5851 5852 5853 5855 5856 5857 5857 5857 5856 5856 5856 5856 5855 5855 5854 5853 5853 5852 5851 5849 5848 5847 5846 5845 5844 5842 5841 5839 5837 5836 5834 5833 5831 5830 5828 5826 5825 5823 5821 5820
5836 5839 5840 5841 5844 5845 5846 5848 5848 5849 5850 5850 5850 5850 5849 5849 5849 5848 5848 5847 5846 5846 5845 5844 5842 5841 5840 5840 5838 5837 5835 5833 5832 5830 5829 5827 5825 5824 5822 5820 5819 5817 5815 5814
5829 5831 5831 5833 5837 5838 5839 5840 5842 5843 5844 5843 5843 5843 5843 5843 5842 5842 5841 5840 5840 5839 5838 5837 5836 5835 5835 5834 5833 5831 5829 5828 5826 5825 5823 5821 5819 5818 5816 5814 5813 5811 5808 5807
5820 5822 5823 5829 5829 5830 5831 5833 5835 5835 5836 5836 5836 5837 5837 5836 5836 5835 5835 5834 5833 5832 5831 5831 5830 5829 5829 5827 5826 5825 5823 5822 5821 5819 5817 5815 5813 5812 5810 5808 5806 5804 5802 5800
5812 5814 5816 5820 5821 5822 5824 5825 5827 5828 5828 5829 5829 5830 5829 5829 5829 5828 5828 5827 5827 5826 5825 5824 5824 5823 5822 5821 5820 5818 5817 5815 5814 5813 5811 5809 5807 5805 5803 5802 5800 5797 5795 5793
5804 5806 5809 5813 5813 5814 5817 5818 5819 5820 5821 5822 5822 5823 5823 5822 5822 5821 5821 5820 5820 5819 5819 5818 5817 5816 5815 5814 5813 5812 5810 5809 5807 5806 5804 5802 5800 5798 5797 5795 5793 5790 5788 5786
5796 5798 5801 5803 5805 5807 5810 5811 5811 5812 5813 5814 5814 5815 5814 5814 5814 5814 5813 5813 5812 5812 5812 5811 5810 5809 5808 5807 5806 5805 5804 5802 5801 5799 5797 5795 5794 5792 5790 5788 5785 5783 5781 5779
5788 5791 5795 5794 5797 5799 5801 5801 5803 5804 5805 5806 5806 5806 5806 5807 5807 5806 5806 5805 5805 5804 5804 5803 5803 5802 5801 5800 5799 5798 5797 5795 5793 5791 5790 5788 5786 5784 5782 5780 5778 5775 5773 5771
5781 5784 5785 5786 5788 5790 5792 5793 5794 5795 5797 5798 5798 5798 5799 5799 5799 5799 5798 5798 5797 5797 5796 5796 5795 5795 5794 5793 5792 5790 5789 5787 5786 5784 5781 5779 5778 5776 5774 5772 5770 5767 5765 5762
5771 5774 5776 5778 5779 5781 5783 5784 5786 5787 5788 5789 5789 5790 5791 5791 5791 5791 5790 5790 5789 5789 5789 5788 5787 5787 5786 5785 5784 5782 5781 5779 5777 5776 5774 5772 5770 5768 5766 5764 5761 5759 5756 5753
5763 5765 5767 5769 5771 5773 5774 5776 5777 5779 5780 5780 5781 5782 5782 5783 5782 5782 5782 5782 5781 5781 5781 5780 5779 5779 5778 5777 5775 5774 5772 5770 5769 5767 5765 5763 5761 5759 5757 5755 5753 5750 5748 5746
5755 5757 5759 5761 5763 5764 5766 5767 5769 5770 5771 5772 5773 5773 5774 5774 5774 5774 5773 5773 5773 5773 5772 5772 5771 5770 5769 5768 5766 5765 5763 5761 5760 5758 5756 5754 5752 5750 5748 5746 5744 5742 5739 5737
5746 5749 5751 5752 5754 5756 5757 5759 5760 5762 5763 5764 5764 5765 5765 5765 5765 5765 5765 5764 5764 5764 5764 5763 5762 5761 5760 5759 5757 5756 5754 5752 5750 5748 5747 5745 5743 5740 5739 5737 5735 5732 5730 5728
5738 5741 5743 5745 5747 5748 5749 5750 5752 5753 5754 5755 5756 5756 5757 5757 5757 5757 5756 5756 5755 5755 5754 5754 5753 5752 5751 5749 5748 5747 5745 5743 5741 5739 5737 5735 5733 5731 5729 5727 5725 5723 5721 5718
5731 5733 5736 5737 5739 5740 5742 5743 5744 5745 5746 5747 5748 5748 5748 5748 5749 5748 5748 5748 5747 5746 5746 5745 5744 5743 5741 5740 5739 5737 5735 5733 5731 5729 5727 5725 5723 5721 5719 5717 5715 5713 5711 5709
5724 5726 5728 5730 5732 5733 5734 5736 5737 5738 5738 5739 5739 5740 5740 5740 5740 5740 5740 5739 5738 5738 5737 5736 5734 5733 5732 5731 5730 5728 5726 5724 5722 5720 5718 5716 5714 5712 5710 5707 5705 5703 5701 5699
5718 5720 5722 5723 5725 5726 5727 5728 5729 5730 5731 5731 5731 5732 5732 5732 5732 5731 5731 5730 5730 5729 5728 5727 5725 5724 5723 5722 5720 5719 5717 5715 5712 5710 5708 5706 5705 5703 5701 5698 5696 5694 5692 5690
5711 5713 5715 5717 5718 5719 5720 5721 5722 5722 5723 5724 5724 5724 5724 5723 5723 5722 5722 5721 5721 5720 5719 5717 5716 5715 5714 5713 5711 5710 5708 5705 5704 5701 5700 5698 5696 5694 5692 5689 5687 5685 5683 5681
5705 5707 5708 5710 5711 5712 5713 5714 5715 5715 5716 5716 5716 5716 5715 5715 5715 5714 5713 5713 5712 5711 5710 5709 5707 5706 5706 5704 5703 5701 5699 5697 5695 5693 5691 5690 5687 5685 5683 5681 5679 5676 5674 5673
5699 5700 5702 5703 5704 5705 5707 5707 5707 5708 5708 5708 5708 5708 5708 5707 5707 5706 5705 5705 5704 5703 5702 5701 5700 5698 5697 5696 5694 5693 5691 5689 5687 5685 5683 5681 5679 5677 5675 5672 5670 5668 5666 5664
5693 5695 5696 5697 5698 5699 5699 5700 5700 5701 5701 5701 5701 5701 5700 5700 5699 5698 5697 5696 5696 5695 5694 5693 5692 5690 5689 5687 5686 5684 5682 5681 5679 5677 5675 5673 5671 5668 5666 5664 5662 5660 5658 5656
5688 5689 5690 5691 5692 5692 5693 5693 5694 5695 5695 5695 5694 5694 5693 5692 5691 5690 5690 5689 5688 5687 5686 5685 5684 5682 5681 5679 5678 5676 5674 5672 5670 5669 5667 5665 5663 5660 5658 5656 5654 5652 5650 5648
5682 5684 5685 5686 5686 5687 5687 5688 5688 5688 5688 5688 5688 5688 5687 5686 5684 5684 5683 5682 5681 5680 5679 5677 5676 5674 5673 5671 5670 5668 5666 5664 5663 5661 5659 5657 5655 5653 5651 5649 5646 5644 5642 5640
5677 5678 5679 5680 5681 5681 5682 5682 5682 5682 5682 5682 5682 5681 5680 5679 5678 5677 5676 5675 5674 5672 5671 5670 5669 5667 5665 5664 5662 5660 5658 5657 5655 5653 5651 5649 5647 5645 5643 5641 5639 5637 5635 5632
5672 5673 5674 5675 5675 5676 5676 5677 5677 5677 5676 5676 5676 5675 5674 5673 5672 5670 5669 5668 5666 5665 5664 5663 5661 5660 5658 5657 5655 5653 5651 5650 5648 5646 5644 5642 5640 5638 5636 5633 5631 5629 5627 5624
5668 5669 5670 5670 5671 5671 5672 5672 5671 5671 5671 5670 5670 5669 5668 5667 5665 5664 5663 5661 5660 5658 5657 5656 5654 5653 5651 5650 5648 5646 5644 5643 5641 5638 5636 5634 5632 5630 5628 5626 5623 5621 5619 5617
5664 5665 5665 5666 5666 5666 5667 5667 5666 5666 5665 5665 5664 5663 5662 5661 5659 5658 5657 5655 5653 5651 5650 5649 5647 5646 5644 5643 5641 5639 5637 5635 5633 5631 5629 5627 5625 5622 5620 5618 5616 5613 5611 5608